DELTA 2 R/B, 40060

Orbit data source: Space-Track

DELTA 2 R/B, 40060 is space debris in HEO originally from a launch on Wed, 02 Jul 2014 UTC launched from the Air Force Western Test Range (AFWTR). Debris objects in space refer to the collection of defunct objects orbiting the Earth. Examples of debris include non-operational satellites, rocket bodies, and fragments generated from explosions, collisions, or faulty payload assembly.

Loading next visibility...
Identifier
40060, 2014-035B
Orbit
HEO
Country
Flag of USUS
Related business
Manufacturer
Boeing/Pueblo
Mission
Spacecraft
Bus & Motor
DELTA/0020, Unknown motor
Mass
~924 kg wet, 924 kg dry
Launch date (UTC)
2014-07-02 (12 years ago)
Launch vehicle
Unknown
Launch site
Air Force Western Test Range (AFWTR)
Object type
Payload
Rocket body
Debris
Shape & HBR
Cyl + Cone, 3.0 m
Radar Cross Section
13.779 m², Large (>1 m²)

Expand to show TLE details & history
Last TLE update: 21 hours ago

TLE from 21 hours ago
0 DELTA 2 R/B
1 40060U 14035B   26254.51423239  .00000042  00000-0  00000-0 0  9997
2 40060  98.1864 109.2425 3069267  92.9840 302.0896  6.11246003272176
Epoch: 2026-09-11T12:20Z
TLE epoch observation values (Epoch: 2026-09-11T12:20:29.678Z)
Latitude
-0°
Longitude
-66.42431°
Altitude
5,248.534 km
Speed
6.085 km/s
True Right ascension
07h 16m 56s
True Declination
0° 00' 00"
Sunlit
Object was in daylight at epoch
Visualization orbit readout
Latitude
Unknown
Longitude
Unknown
Altitude
Unknown
Speed
Unknown
Apparent Right ascension
Unknown
Apparent Declination
Unknown
Sunlit
N/A
Visualization observer readout
Local Sidereal Time
01:28:31
Azimuth
Unknown
Elevation
Unknown
Doppler factor
Unknown
Orbital elements
Apogee altitude
10,133.016 km
Perigee altitude
2,377.855 km
Semi-major axis
12,633.572 km
Eccentricity
0.30693
Inclination
98.1864°
RAAN
109.2425°
Arg. of periapsis
92.984°
True anomaly
267.1204°
Mean anomaly
302.0896°
Eccentric anomaly
285.11215°
Mean motion
1.52846 °/min
Orbital period
235.53 mins
BSTAR
0
Loading maneuver chart data...
Computing Atmospheric mass density...
Loading historical data...
Loading historical data...
Loading historical data...
Loading historical data...
Loading historical data...
Loading historical data...
Loading historical data...
Other satellites on launch #35 in the year 2014 (2014-07-02 UTC)

Documentation

Showing up to 5 results
|